Location: Observatory
(52.1446°N, 0.4624°W)
Time: 02:06:41
(UTC+01:00)

ISS - Pass Details

Date: 20 May 2018
Orbit: 402 x 406 km, 51.6° (Epoch: 21 June)

Event Time Altitude Azimuth Distance (km) Brightness Sun altitude
Rises 22:02:08 0° 200° (SSW) 2,310 -0.3 -8.2°
Reaches altitude 10° 22:04:57 10° 173° (S) 1,454 -1.5 -8.5°
Maximum altitude 22:06:41 14° 141° (SE) 1,255 -2.0 -8.7°
Drops below altitude 10° 22:08:24 10° 109° (ESE) 1,458 -1.5 -8.8°
Sets 22:11:14 0° 82° (E) 2,321 -0.3 -9.1°
